Other Surface Observations
Issued by NWS Tucson, AZ

Home | Current Version | Previous Version | Text Only | Print | Product List | Glossary On
Versions: 1 2 3 4 5 6 7 8 9 10 11 12 13 14 15 16 17 18 19 20 21 22 23 24 25 26 27 28 29 30 31 32 33 34 35 36 37 38 39 40 41 42 43 44 45 46 47 48 49 50
000
SXUS55 KTWC 202216
OSOTWC

WEATHER ROUNDUP FOR SOUTHEAST ARIZONA
NATIONAL WEATHER SERVICE TUCSON AZ
315 PM MST SAT SEP 20 2014

AZZ504>506-514-202315-
LOCATION       SKY/WX    TMP DP  RH WIND       PRES   REMARKS
TUCSON         PTSUNNY   87  64  46 S3        29.95F
DAVIS-MONTHAN  PTSUNNY   86  65  49 S5        29.93F
CHILDRENS PARK N/A      N/A N/A N/A N/A               PIMA CO DEQ
ALVERNON/22ND  N/A      N/A N/A N/A N/A               PIMA CO DEQ
CHERRY/GLENN   N/A      N/A N/A N/A N/A               PIMA CO DEQ
TANGERINE      N/A       86 N/A N/A E6                PIMA CO DEQ
CONTL RANCH    N/A       88  69  53 SE1               PIMA CO DEQ
GRANT/1ST      N/A       87  66  50 E6                PIMA CO DEQ
CRAYCROFT/22ND N/A      N/A N/A N/A N/A               PIMA CO DEQ
GOLFLINKS/KOLB N/A       86  67  53 S4                PIMA CO DEQ
AJO/12TH       N/A       86  66  51 S10               PIMA CO DEQ
SAGUARO EAST   N/A      N/A N/A N/A N/A               PIMA CO DEQ
FAIRGROUNDS    N/A       82 N/A N/A SW4               PIMA CO DEQ
SAGUARO        N/A       89  68  51 SE4G12            *SABINO CYN
SAN CARLOS     N/A       95  62  34 SE7G10            *SAN CARLOS
GREEN VALLEY   N/A       84  64  52 S1                PIMA CO DEQ
HORSE CAMP CYN N/A       86  59  40 W11G20            *ARAVAIPA CYN
RINCON MTNS    N/A       65  59  80 E3                *NR MANNING CAMP
$$

AZZ509>511-202315-
LOCATION       SKY/WX    TMP DP  RH WIND       PRES   REMARKS
SAFFORD        MOSUNNY   90  60  36 SW7       29.92F
STRAY HORSE    N/A       76  52  43 SE4G10            *
TRAIL CABIN    N/A       81  60  49 SW4G10            *N OF GRANVILLE
BLACK HILLS    N/A       92  61  36 SW4G10            *N OF FT THOMAS
DRY LAKE       N/A       75  62  64 S4                *NATANES MTNS
NOON CREEK     N/A       79  66  65 CALM              *PINALENO MTNS
COLUMBINE      N/A       56  52  86 S3                *PINALENO MTNS
GUTHRIE        N/A       80  60  50 S3G18             *SW OF GUTHRIE
$$

AZZ502-503-513-202315-
LOCATION       SKY/WX    TMP DP  RH WIND       PRES   REMARKS
NOGALES        MOSUNNY   83  64  52 VRB7      30.02F
SELLS          N/A       88  65  47 SW6G11            *
SASABE         N/A       70  66  86 W10G22            *ALTAR VLY
HOPKINS        N/A       71  62  74 SE3               *SANTA RITA MTNS
CARR CYN       N/A       71  69  92 S2                *W OF HEREFORD
$$

AZZ507-508-512-202315-
LOCATION       SKY/WX    TMP DP  RH WIND       PRES   REMARKS
SIERRA VISTA   MOSUNNY   79  62  56 VRB3      30.07F
DOUGLAS        PTSUNNY   84  64  50 NW12      30.02F
EMPIRE MTNS    N/A       83  59  45 CALM              *LAS CIENEGAS NCA
MULESHOE RANCH N/A       82  63  52 W6G16             *PRESERVE
HEADQUARTERS   N/A       71  62  74 E7G13             *CHIRICAHUA MTNS
$$

.............................NOTES.............................
THIS IS AN AUTOMATED COLLECTIVE WITH MINIMAL QUALITY CONTROL.
PIMA CO DEQ SITES HAVE NONSTANDARD WIND SENSOR HEIGHTS.
PIMA CO DEQ SITES DO NOT REPORT WIND GUSTS.
* INDICATES WIND SENSORS LOCATED AT 20 FEET INSTEAD OF 33 FEET.
..............................KEY..............................
SKY/WX - SKY CONDITION/WEATHER
TMP    - TEMPERATURE IN FAHRENHEIT
DP     - DEWPOINT IN FAHRENHEIT
RH     - RELATIVE HUMIDITY IN PERCENT
WIND   - DIRECTION AND SPEED IN MILES PER HOUR (MPH)
VRB    - VARIABLE WIND DIRECTION
PRES   - MEAN SEA LEVEL PRESSURE IN INCHES OF MERCURY
         F - FALLING PRESSURE   R - RISING PRESSURE
         S - STEADY PRESSURE
VSB    - VISIBILITY IN MILES
HX     - HEAT INDEX IN FAHRENHEIT
WCI    - WIND CHILL INDEX IN FAHRENHEIT
N/A    - NOT AVAILABLE
AFB    - AIR FORCE BASE
         DAVIS-MONTHAN IS DAVIS-MONTHAN AIR FORCE BASE
CYN    - CANYON
MTNS   - MOUNTAINS
NCA    - NATIONAL CONSERVATION AREA
NR     - NEAR
VLY    - VALLEY
CONTL  - CONTINENTAL
PIMA CO DEQ - PIMA COUNTY DEPT OF ENVIRONMENTAL QUALITY



USA.gov is the U.S. government's official web portal to all federal, state and local government web resources and services.